Location: Faicchio
(41.2833°N, 14.4833°E)
Time: 05:38:11
(UTC+00:00)

USA 59 Rocket - Pass Details

Date: 15 June 2025
Orbit: 372 x 1693 km, 63.3° (Epoch: 16 July)

Event Time Altitude Azimuth Distance (km) Brightness Sun altitude
Rises 00:51:12 0° 305° (NW) 2,681 3.4 -20.7°
Reaches altitude 10° 00:53:39 10° 287° (WNW) 1,954 2.5 -20.5°
Enters shadow 00:54:13 13° 280° (W) 1,828 2.3 -20.4°
